DBR374 KLAS-KMDW

Flight info

Callsign DBR374
Flight time N/A
Altitude 41000
Route NIITZ4 HOCEE RSK J110 ALS J102 SLN J96 IRK ENDEE8
Aircraft CL30/M-SDE3FGJ4P2RWXY/SD1

Departure

Time 2026-05-01 14:15
Airport Harry Reid International Airport (KLAS)

Arrival

Time N/A
Airport Chicago Midway International Airport (KMDW)
Time Latitude Longitude Altitude Speed Heading
2026-05-01 13:59 36.09882 -115.15995 2189 ft 0 kts 116°
2026-05-01 14:07 36.09872 -115.15969 2189 ft 7 kts 116°
2026-05-01 14:07 36.09823 -115.15962 2189 ft 8 kts 205°
2026-05-01 14:07 36.09773 -115.15991 2189 ft 8 kts 205°
2026-05-01 14:08 36.09634 -115.16070 2189 ft 15 kts 205°
2026-05-01 14:08 36.09545 -115.16121 2189 ft 14 kts 205°
2026-05-01 14:08 36.09457 -115.16171 2189 ft 15 kts 205°
2026-05-01 14:08 36.09354 -115.16229 2189 ft 17 kts 205°
2026-05-01 14:09 36.09249 -115.16289 2189 ft 16 kts 205°
2026-05-01 14:09 36.09147 -115.16346 2189 ft 16 kts 205°
2026-05-01 14:09 36.09047 -115.16402 2189 ft 15 kts 204°
2026-05-01 14:09 36.08950 -115.16456 2189 ft 15 kts 204°
2026-05-01 14:10 36.08858 -115.16508 2189 ft 14 kts 204°
2026-05-01 14:10 36.08767 -115.16560 2189 ft 15 kts 205°
2026-05-01 14:10 36.08664 -115.16618 2189 ft 18 kts 204°
2026-05-01 14:10 36.08550 -115.16683 2189 ft 18 kts 204°
2026-05-01 14:11 36.08437 -115.16747 2189 ft 18 kts 204°
2026-05-01 14:11 36.08209 -115.16875 2189 ft 18 kts 204°
2026-05-01 14:11 36.08100 -115.16936 2189 ft 17 kts 204°
2026-05-01 14:12 36.07997 -115.16994 2189 ft 16 kts 204°
2026-05-01 14:12 36.07902 -115.17048 2189 ft 14 kts 204°
2026-05-01 14:12 36.07821 -115.17072 2189 ft 10 kts 138°
2026-05-01 14:12 36.07789 -115.17014 2189 ft 7 kts 102°
2026-05-01 14:13 36.07786 -115.16968 2189 ft 0 kts 89°
2026-05-01 14:14 36.07787 -115.16931 2189 ft 9 kts 89°
2026-05-01 14:14 36.07795 -115.16872 2189 ft 6 kts 33°
2026-05-01 14:14 36.07862 -115.16833 2189 ft 34 kts 25°
2026-05-01 14:14 36.08362 -115.16547 2189 ft 126 kts 25°
2026-05-01 14:15 36.09382 -115.15961 2496 ft 189 kts 25°
2026-05-01 14:15 36.10713 -115.15161 3187 ft 236 kts 26°
2026-05-01 14:15 36.12289 -115.14193 3836 ft 257 kts 26°
2026-05-01 14:15 36.13763 -115.13019 4435 ft 252 kts 44°
2026-05-01 14:16 36.14649 -115.11166 5073 ft 256 kts 71°
2026-05-01 14:16 36.14960 -115.08988 5719 ft 258 kts 85°
2026-05-01 14:16 36.15012 -115.06776 6346 ft 259 kts 90°
2026-05-01 14:16 36.14980 -115.04542 6972 ft 259 kts 91°
2026-05-01 14:17 36.14916 -115.02323 7593 ft 261 kts 92°
2026-05-01 14:17 36.14833 -115.00063 8227 ft 263 kts 92°
2026-05-01 14:17 36.14737 -114.97780 8856 ft 265 kts 92°
2026-05-01 14:17 36.14634 -114.95508 9475 ft 268 kts 92°
2026-05-01 14:18 36.14541 -114.93211 10113 ft 269 kts 89°
2026-05-01 14:18 36.14667 -114.90895 10925 ft 270 kts 83°
2026-05-01 14:18 36.14722 -114.88543 11736 ft 275 kts 89°
2026-05-01 14:18 36.14651 -114.86966 12272 ft 277 kts 92°
2026-05-01 14:19 36.14284 -114.83796 13341 ft 283 kts 98°
2026-05-01 14:19 36.13860 -114.81423 14140 ft 288 kts 101°
2026-05-01 14:19 36.13352 -114.78982 14948 ft 296 kts 102°
2026-05-01 14:19 36.12827 -114.76448 15757 ft 318 kts 102°
2026-05-01 14:20 36.12268 -114.73683 16581 ft 340 kts 101°
2026-05-01 14:20 36.11100 -114.67749 18201 ft 369 kts 101°
2026-05-01 14:20 36.10493 -114.64613 19012 ft 378 kts 101°
2026-05-01 14:21 36.09883 -114.61452 19809 ft 385 kts 101°
2026-05-01 14:21 36.09258 -114.58196 20614 ft 391 kts 101°
2026-05-01 14:21 36.08632 -114.54932 21411 ft 396 kts 101°
2026-05-01 14:22 36.07349 -114.48228 23014 ft 407 kts 101°
2026-05-01 14:22 36.06688 -114.44771 23824 ft 413 kts 101°
2026-05-01 14:22 36.06030 -114.41331 24619 ft 418 kts 101°
2026-05-01 14:22 36.05351 -114.37786 25428 ft 422 kts 101°
2026-05-01 14:23 36.04677 -114.34269 26223 ft 425 kts 101°
2026-05-01 14:23 36.03987 -114.30679 27028 ft 428 kts 101°
2026-05-01 14:23 36.03301 -114.27115 27825 ft 429 kts 101°
2026-05-01 14:23 36.02608 -114.23522 28625 ft 429 kts 100°
2026-05-01 14:24 36.01924 -114.19982 29415 ft 428 kts 100°
2026-05-01 14:24 36.01229 -114.16392 30217 ft 426 kts 100°
2026-05-01 14:24 36.00539 -114.12831 30956 ft 425 kts 100°
2026-05-01 14:24 35.99855 -114.09300 31505 ft 429 kts 100°
2026-05-01 14:25 35.99156 -114.05688 32018 ft 433 kts 100°
2026-05-01 14:25 35.98449 -114.02036 32449 ft 440 kts 100°
2026-05-01 14:25 35.97740 -113.98372 32735 ft 449 kts 100°
2026-05-01 14:25 35.97004 -113.94570 32997 ft 458 kts 100°
2026-05-01 14:26 35.96261 -113.90740 33251 ft 466 kts 100°
2026-05-01 14:26 35.94712 -113.82792 33760 ft 481 kts 100°
2026-05-01 14:26 35.93926 -113.78779 34011 ft 488 kts 100°
2026-05-01 14:27 35.93117 -113.74667 34265 ft 493 kts 100°
2026-05-01 14:27 35.92309 -113.70567 34515 ft 498 kts 101°
2026-05-01 14:27 35.91480 -113.66377 34768 ft 503 kts 101°
2026-05-01 14:28 35.89810 -113.57973 35268 ft 510 kts 101°
2026-05-01 14:28 35.89289 -113.53644 35520 ft 508 kts 90°
2026-05-01 14:28 35.89263 -113.49332 35773 ft 506 kts 83°
2026-05-01 14:28 35.89556 -113.44979 36028 ft 505 kts 78°
2026-05-01 14:29 35.90039 -113.40740 36278 ft 504 kts 76°
2026-05-01 14:29 35.90652 -113.36455 36530 ft 505 kts 74°
2026-05-01 14:30 35.92784 -113.23725 37281 ft 507 kts 72°
2026-05-01 14:30 35.93530 -113.19445 37533 ft 508 kts 73°
2026-05-01 14:30 35.94262 -113.15223 37780 ft 508 kts 73°
2026-05-01 14:31 35.95715 -113.06679 38280 ft 509 kts 73°
2026-05-01 14:31 35.96430 -113.02380 38531 ft 509 kts 73°
2026-05-01 14:31 35.97125 -112.98136 38806 ft 508 kts 74°
2026-05-01 14:31 35.97815 -112.93848 39161 ft 506 kts 74°
2026-05-01 14:32 35.98486 -112.89619 39529 ft 503 kts 74°
2026-05-01 14:32 35.98931 -112.86790 39779 ft 501 kts 75°
2026-05-01 14:32 35.99800 -112.81194 40275 ft 496 kts 75°
2026-05-01 14:32 36.00443 -112.77009 40650 ft 493 kts 76°
2026-05-01 14:33 36.01069 -112.72902 40951 ft 491 kts 76°
2026-05-01 14:33 36.01703 -112.68720 41082 ft 494 kts 76°
2026-05-01 14:33 36.02331 -112.64559 41156 ft 498 kts 76°
2026-05-01 14:34 36.03602 -112.56084 41162 ft 508 kts 76°
2026-05-01 14:34 36.04881 -112.47458 41162 ft 512 kts 76°
2026-05-01 14:35 36.06144 -112.38832 41164 ft 508 kts 77°
2026-05-01 14:35 36.07387 -112.30261 41166 ft 507 kts 77°
2026-05-01 14:36 36.08627 -112.21666 41167 ft 508 kts 77°
2026-05-01 14:36 36.09653 -112.14526 41168 ft 509 kts 77°
2026-05-01 14:37 36.10886 -112.05888 41167 ft 509 kts 77°
2026-05-01 14:37 36.12311 -111.95853 41166 ft 510 kts 77°
2026-05-01 14:38 36.13334 -111.88603 41164 ft 510 kts 77°
2026-05-01 14:38 36.14547 -111.79966 41162 ft 510 kts 77°
2026-05-01 14:39 36.15754 -111.71318 41159 ft 510 kts 77°
2026-05-01 14:39 36.16953 -111.62669 41155 ft 510 kts 77°
2026-05-01 14:40 36.18205 -111.54107 41153 ft 508 kts 76°
2026-05-01 14:40 36.19642 -111.45539 41150 ft 508 kts 75°
2026-05-01 14:41 36.21155 -111.36988 41144 ft 508 kts 74°
2026-05-01 14:41 36.22688 -111.28457 41139 ft 507 kts 74°
2026-05-01 14:42 36.24216 -111.19963 41135 ft 507 kts 75°
2026-05-01 14:42 36.25746 -111.11412 41133 ft 507 kts 75°
2026-05-01 14:43 36.27258 -111.02910 41131 ft 507 kts 75°
2026-05-01 14:43 36.28768 -110.94358 41130 ft 507 kts 75°
2026-05-01 14:44 36.30268 -110.85807 41129 ft 507 kts 75°
2026-05-01 14:44 36.32489 -110.73050 41128 ft 507 kts 75°
2026-05-01 14:45 36.34706 -110.60214 41120 ft 507 kts 75°
2026-05-01 14:46 36.36176 -110.51644 41120 ft 508 kts 75°
2026-05-01 14:46 36.38366 -110.38803 41121 ft 508 kts 76°
2026-05-01 14:47 36.39816 -110.30250 41122 ft 508 kts 76°
2026-05-01 14:48 36.41987 -110.17359 41123 ft 508 kts 76°
2026-05-01 14:48 36.44141 -110.04481 41124 ft 509 kts 76°
2026-05-01 14:49 36.46997 -109.87270 41125 ft 508 kts 76°
2026-05-01 14:50 36.49820 -109.70093 41127 ft 508 kts 76°
2026-05-01 14:51 36.51924 -109.57180 41128 ft 508 kts 76°
2026-05-01 14:52 36.54013 -109.44271 41129 ft 508 kts 76°
2026-05-01 14:53 36.56084 -109.31376 41129 ft 508 kts 77°
2026-05-01 14:53 36.57465 -109.22725 41128 ft 507 kts 77°
2026-05-01 14:54 36.58832 -109.14121 41128 ft 507 kts 77°
2026-05-01 14:54 36.60193 -109.05517 41129 ft 507 kts 77°
2026-05-01 14:55 36.61538 -108.96962 41127 ft 507 kts 77°
2026-05-01 14:55 36.62883 -108.88369 41122 ft 507 kts 77°
2026-05-01 14:56 36.64230 -108.79719 41120 ft 507 kts 77°
2026-05-01 14:56 36.65560 -108.71135 41119 ft 506 kts 77°
2026-05-01 14:57 36.66887 -108.62530 41116 ft 506 kts 77°
2026-05-01 14:57 36.68867 -108.49606 41114 ft 506 kts 78°
2026-05-01 14:58 36.70183 -108.40957 41112 ft 506 kts 78°
2026-05-01 14:58 36.71485 -108.32353 41110 ft 507 kts 78°
2026-05-01 14:59 36.72782 -108.23733 41109 ft 507 kts 78°
2026-05-01 14:59 36.74070 -108.15111 41109 ft 507 kts 78°
2026-05-01 15:00 36.76737 -108.02407 41120 ft 505 kts 71°
2026-05-01 15:01 36.78918 -107.94110 41120 ft 505 kts 69°
2026-05-01 15:01 36.81208 -107.85797 41125 ft 504 kts 69°
2026-05-01 15:02 36.83505 -107.77548 41131 ft 504 kts 69°
2026-05-01 15:02 36.85795 -107.69303 41141 ft 504 kts 69°
2026-05-01 15:03 36.88072 -107.61039 41146 ft 504 kts 69°
2026-05-01 15:03 36.90333 -107.52771 41149 ft 505 kts 69°
2026-05-01 15:04 36.92586 -107.44467 41153 ft 505 kts 69°
2026-05-01 15:04 36.94827 -107.36155 41158 ft 505 kts 69°
2026-05-01 15:05 36.97063 -107.27816 41163 ft 505 kts 69°
2026-05-01 15:05 36.99276 -107.19521 41169 ft 505 kts 69°
2026-05-01 15:06 37.01490 -107.11186 41174 ft 505 kts 70°
2026-05-01 15:06 37.03691 -107.02864 41181 ft 505 kts 69°
2026-05-01 15:07 37.05891 -106.94517 41207 ft 505 kts 70°
2026-05-01 15:07 37.08085 -106.86163 41216 ft 505 kts 70°
2026-05-01 15:08 37.10268 -106.77825 41220 ft 505 kts 70°
2026-05-01 15:08 37.12452 -106.69449 41226 ft 505 kts 70°
2026-05-01 15:09 37.14624 -106.61093 41264 ft 505 kts 70°
2026-05-01 15:09 37.16791 -106.52726 41263 ft 506 kts 70°
2026-05-01 15:10 37.18956 -106.44343 41257 ft 506 kts 70°
2026-05-01 15:10 37.22204 -106.31712 41250 ft 506 kts 71°
2026-05-01 15:11 37.25413 -106.19168 41243 ft 505 kts 71°
2026-05-01 15:12 37.27549 -106.10776 41235 ft 505 kts 71°
2026-05-01 15:12 37.30738 -105.98193 41224 ft 505 kts 71°
2026-05-01 15:14 37.36168 -105.77201 41223 ft 505 kts 69°
2026-05-01 15:14 37.39682 -105.64768 41236 ft 505 kts 69°
2026-05-01 15:15 37.44429 -105.48191 41287 ft 505 kts 69°
2026-05-01 15:16 37.49164 -105.31562 41346 ft 505 kts 69°
2026-05-01 15:18 37.55058 -105.10660 41368 ft 507 kts 69°
2026-05-01 15:19 37.59731 -104.93942 41352 ft 507 kts 69°
2026-05-01 15:19 37.63235 -104.81328 41330 ft 508 kts 69°
2026-05-01 15:20 37.66718 -104.68725 41308 ft 508 kts 69°
2026-05-01 15:21 37.69034 -104.60308 41297 ft 508 kts 69°
2026-05-01 15:21 37.71343 -104.51888 41288 ft 508 kts 69°
2026-05-01 15:22 37.74790 -104.39269 41279 ft 508 kts 69°
2026-05-01 15:22 37.77096 -104.30792 41274 ft 508 kts 69°
2026-05-01 15:23 37.79376 -104.22384 41255 ft 508 kts 69°
2026-05-01 15:23 37.81664 -104.13921 41252 ft 508 kts 69°
2026-05-01 15:24 37.83954 -104.05420 41251 ft 508 kts 69°
2026-05-01 15:24 37.86216 -103.96996 41251 ft 508 kts 69°
2026-05-01 15:25 37.88475 -103.88554 41250 ft 508 kts 69°
2026-05-01 15:25 37.90745 -103.80044 41250 ft 508 kts 69°
2026-05-01 15:26 37.92995 -103.71579 41249 ft 508 kts 69°
2026-05-01 15:26 37.95239 -103.63110 41249 ft 509 kts 69°
2026-05-01 15:27 37.97480 -103.54623 41249 ft 509 kts 70°
2026-05-01 15:28 38.00847 -103.41818 41249 ft 509 kts 69°
2026-05-01 15:28 38.03065 -103.33344 41249 ft 509 kts 69°
2026-05-01 15:29 38.06396 -103.20567 41247 ft 509 kts 70°
2026-05-01 15:30 38.10456 -103.04901 41243 ft 509 kts 70°
2026-05-01 15:31 38.17408 -102.77831 41239 ft 510 kts 70°
2026-05-01 15:32 38.21210 -102.60511 41241 ft 512 kts 75°
2026-05-01 15:34 38.25607 -102.33882 41234 ft 514 kts 77°